Location: Unspecified
(35.7250°N, 0.0000°E)
Time: 04:10:36
(UTC+00:00)

Vanguard 1 - Pass Details

Date: 29 June 2019
Orbit: 653 x 3830 km, 34.3° (Epoch: 20 July)

Event Time Altitude Azimuth Distance (km) Brightness Sun altitude
Rises 00:56:35 0° 243° (WSW) 7,927 14.3 -29.7°
Reaches altitude 10° 01:02:01 10° 242° (WSW) 6,931 14.0 -29.4°
Maximum altitude 01:25:04 74° 163° (SSE) 3,230 12.3 -27.9°
Drops below altitude 10° 01:39:37 10° 82° (E) 4,682 13.9 -26.8°
Sets 01:42:29 0° 80° (E) 5,353 14.3 -26.5°
